LRTC Weather Reports


time (UTC)temp
C
wind
direction
speed
KPH
gust
KPH
rain 1hr
cm
rain 24hr
cm
rain mn
cm
humidity
%
barometer
mb
20260507221841 12 160 14.5 0.0 0.00 0.00 0.00 94 1017.0
20260507220344 12 160 14.5 0.0 0.00 0.00 0.00 94 1017.0
20260507214844 12 140 16.1 0.0 0.00 0.00 0.00 94 1017.0
20260507213346 12 140 16.1 0.0 0.00 0.00 0.00 94 1017.0
20260507211845 11 150 12.9 0.0 0.00 0.00 0.00 100 1017.0
20260507210345 11 150 12.9 0.0 0.00 0.00 0.00 100 1017.0
20260507204844 11 150 12.9 0.0 0.00 0.00 0.00 100 1017.0
20260507203345 11 150 12.9 0.0 0.00 0.00 0.00 100 1017.0
20260507200345 11 140 12.9 0.0 0.00 0.00 0.00 94 1017.0
20260507194850 11 140 12.9 0.0 0.00 0.00 0.00 94 1017.0
20260507193344 11 140 12.9 0.0 0.00 0.00 0.00 94 1017.0
20260507190345 11 140 12.9 0.0 0.00 0.00 0.00 94 1017.0
20260507184846 11 140 12.9 0.0 0.00 0.00 0.00 94 1017.0
20260507183344 11 140 12.9 0.0 0.00 0.00 0.00 94 1017.0
20260507181845 11 140 12.9 0.0 0.00 0.00 0.00 94 1017.0
20260507180344 11 140 12.9 0.0 0.00 0.00 0.00 94 1017.0
20260507174844 12 140 16.1 0.0 0.00 0.00 0.00 94 1017.0
20260507173345 12 140 16.1 0.0 0.00 0.00 0.00 94 1017.0
20260507171845 12 140 16.1 0.0 0.00 0.00 0.00 88 1017.0
20260507170344 12 140 16.1 0.0 0.00 0.00 0.00 88 1017.0
20260507164845 12 140 20.9 0.0 0.00 0.00 0.00 82 1017.0
20260507163345 12 140 20.9 0.0 0.00 0.00 0.00 82 1017.0
20260507161844 13 150 22.5 0.0 0.00 0.00 0.00 77 1017.0
20260507160344 13 150 22.5 0.0 0.00 0.00 0.00 77 1017.0
20260507154845 15 150 24.1 0.0 0.00 0.00 0.00 72 1017.0
20260507153345 15 150 24.1 0.0 0.00 0.00 0.00 72 1017.0
20260507151844 16 150 25.7 0.0 0.00 0.00 0.00 68 1017.0
20260507150344 16 150 25.7 0.0 0.00 0.00 0.00 68 1017.0
20260507144844 16 150 27.4 0.0 0.00 0.00 0.00 68 1017.0
20260507143346 16 150 27.4 0.0 0.00 0.00 0.00 68 1017.0
20260507141845 17 150 25.7 0.0 0.00 0.00 0.00 68 1018.0
20260507140344 17 150 25.7 0.0 0.00 0.00 0.00 68 1018.0
20260507134845 17 160 27.4 0.0 0.00 0.00 0.00 68 1017.0
20260507133344 17 160 27.4 0.0 0.00 0.00 0.00 68 1017.0
20260507131841 17 160 27.4 0.0 0.00 0.00 0.00 68 1018.0
20260507130344 17 160 27.4 0.0 0.00 0.00 0.00 68 1018.0
20260507124841 17 160 25.7 0.0 0.00 0.00 0.00 64 1018.0
20260507123422 17 160 25.7 0.0 0.00 0.00 0.00 64 1018.0
20260507121844 17 150 25.7 0.0 0.00 0.00 0.00 64 1018.0
20260507120344 17 150 25.7 0.0 0.00 0.00 0.00 64 1018.0
20260507114844 18 140 24.1 0.0 0.00 0.00 0.00 60 1018.0
20260507113405 18 140 25.7 0.0 0.00 0.00 0.00 64 1018.0
20260507111844 18 140 25.7 0.0 0.00 0.00 0.00 64 1018.0
20260507110344 18 140 25.7 0.0 0.00 0.00 0.00 64 1018.0
20260507104844 17 130 24.1 0.0 0.00 0.00 0.00 68 1018.0
20260507103344 17 130 24.1 0.0 0.00 0.00 0.00 68 1018.0
20260507101844 17 130 25.7 0.0 0.00 0.00 0.00 60 1018.0
20260507100345 17 130 25.7 0.0 0.00 0.00 0.00 60 1018.0
20260507094845 18 150 22.5 0.0 0.00 0.00 0.00 56 1018.0
20260507093345 18 150 22.5 0.0 0.00 0.00 0.00 56 1018.0
20260507091846 17 150 24.1 0.0 0.00 0.00 0.00 56 1018.0
20260507090344 17 150 24.1 0.0 0.00 0.00 0.00 56 1018.0
20260507084844 17 140 20.9 0.0 0.00 0.00 0.00 60 1018.0
20260507083345 17 140 20.9 0.0 0.00 0.00 0.00 60 1018.0
20260507081844 17 160 16.1 0.0 0.00 0.00 0.00 68 1018.0
20260507080345 17 160 16.1 0.0 0.00 0.00 0.00 68 1018.0
20260507074845 16 170 17.7 0.0 0.00 0.00 0.00 72 1018.0
20260507073344 16 170 17.7 0.0 0.00 0.00 0.00 72 1018.0
20260507071845 16 160 16.1 0.0 0.00 0.00 0.00 72 1018.0
20260507070344 16 160 16.1 0.0 0.00 0.00 0.00 72 1018.0
20260507064844 15 150 14.5 0.0 0.00 0.00 0.00 72 1018.0
20260507063344 15 150 14.5 0.0 0.00 0.00 0.00 72 1018.0
20260507061854 13 160 12.9 0.0 0.00 0.00 0.00 82 1018.0
20260507060344 13 160 12.9 0.0 0.00 0.00 0.00 82 1018.0
20260507054844 12 150 11.3 0.0 0.00 0.00 0.00 88 1018.0
20260507053352 12 150 11.3 0.0 0.00 0.00 0.00 88 1018.0
20260507051845 11 150 9.7 0.0 0.00 0.00 0.00 100 1018.0
20260507050344 11 150 9.7 0.0 0.00 0.00 0.00 100 1018.0
20260507043344 10 140 8.0 0.0 0.00 0.00 0.00 100 1018.0
20260507041844 8 140 8.0 0.0 0.00 0.00 0.00 100 1018.0
20260507040344 8 140 8.0 0.0 0.00 0.00 0.00 100 1018.0
20260507034841 7 160 4.8 0.0 0.00 0.00 0.00 100 1017.0
20260507033344 7 160 4.8 0.0 0.00 0.00 0.00 100 1017.0
20260507030344 6 1.6 0.0 0.00 0.00 0.00 100 1017.0
20260507024841 6 3.2 0.0 0.00 0.00 0.00 100 1017.0
20260507023344 6 3.2 0.0 0.00 0.00 0.00 100 1017.0
20260507021845 6 220 3.2 0.0 0.00 0.00 0.00 100 1017.0
20260507020344 6 220 3.2 0.0 0.00 0.00 0.00 100 1017.0
20260507014844 5 160 4.8 0.0 0.00 0.00 0.00 100 1017.0
20260507013344 5 160 4.8 0.0 0.00 0.00 0.00 100 1017.0
20260507011844 3 3.2 0.0 0.00 0.00 0.00 100 1017.0
20260507010345 3 3.2 0.0 0.00 0.00 0.00 100 1017.0
20260507004844 6 3.2 0.0 0.00 0.00 0.00 100 1017.0
20260507003345 6 3.2 0.0 0.00 0.00 0.00 100 1017.0
20260507001844 6 3.2 0.0 0.00 0.00 0.00 100 1017.0
20260507000344 6 3.2 0.0 0.00 0.00 0.00 100 1017.0
20260506234844 7 3.2 0.0 0.00 0.00 0.00 100 1017.0
20260506233344 7 3.2 0.0 0.00 0.00 0.00 100 1017.0
20260506230344 7 120 4.8 0.0 0.00 0.00 0.00 100 1017.0
20260506224841 6 110 1.6 0.0 0.00 0.00 0.00 100 1017.0
20260506223344 6 110 1.6 0.0 0.00 0.00 0.00 100 1017.0